Weather History for Scottsbluff, NE

Change the Weather History Date:

Friday, March 7, 2014

  Actual Average Record
Temperature  
Mean Temperature 38 °F 36 °F  
Max Temperature 44 °F 50 °F 69 °F (1911)
Min Temperature 32 °F 21 °F -16 °F (1920)
Degree Days  
Heating Degree Days 27 29  
Month to date heating degree days 257 211  
Since 1 July heating degree days 5290 5123  
Cooling Degree Days 0 0  
Month to date cooling degree days 0 0  
Year to date cooling degree days 0 0  
Moisture  
Dew Point 34 °F    
Average Humidity 81    
Maximum Humidity 96    
Minimum Humidity 65    
Precipitation  
Precipitation 0.18 in 0.03 in 0.22 in (1932)
Month to date precipitation 0.29 0.18  
Year to date precipitation 1.89 1.19  
Snow  
Snow T in 0.30 in 3.20 in (1969)
Month to date snowfall 3.8 1.7  
Since 1 July snowfall 55.1 30.1  
Snow Depth 0.00 in    
Sea Level Pressure  
Sea Level Pressure 30.03 in    
Wind  
Wind Speed 5 mph (NNE)    
Max Wind Speed 15 mph    
Max Gust Speed 19 mph    
Visibility 7 miles    
Events Rain , Snow    
T = Trace of Precipitation, MM = Missing Value Source: NWS Daily Summary

Daily Weather History Graph

Daily Weather History Graph

Search for Another Location

Airport:

Trip Planner

Search our weather history database for the weather conditions in past years. The results will help you decide how hot, cold, wet, or windy it might be!

Date:

Astronomy

Mar. 07, 2014 Rise Set
Actual Time 6:19 AM MST 5:51 PM MST
Civil Twilight 5:51 AM MST 6:19 PM MST
Nautical Twilight 5:19 AM MST 6:51 PM MST
Astronomical Twilight 4:47 AM MST 7:24 PM MST
Moon 10:08 AM MST (3/7) 12:04 AM MST (3/7)
Length of Visible Light 12h 27m
Length of Day
11h 32m
Waxing Crescent, 42% of the Moon is Illuminated
Mar 7
Waxing Crescent
Mar 8
First Quarter
Mar 16
Full
Mar 23
Last Quarter
Mar 30
New

Hourly Weather History & Observations

Time (MST) Temp. Windchill Dew Point Humidity Pressure Visibility Wind Dir Wind Speed Gust Speed Precip Events Conditions
12:53 AM 44.1 °F 41.5 °F 34.0 °F 68% 29.76 in 10.0 mi NW 4.6 mph - N/A   Overcast
1:53 AM 43.0 °F 39.5 °F 34.0 °F 71% 29.78 in 10.0 mi NNW 5.8 mph - N/A   Overcast
2:53 AM 41.0 °F - 33.1 °F 73% 29.81 in 10.0 mi Calm Calm - N/A   Clear
3:53 AM 41.0 °F 38.0 °F 34.0 °F 76% 29.83 in 10.0 mi NNE 4.6 mph - N/A   Partly Cloudy
4:38 AM 39.9 °F 37.8 °F 34.0 °F 79% 29.87 in 10.0 mi East 3.5 mph - N/A   Overcast
4:53 AM 39.9 °F 33.9 °F 34.0 °F 79% 29.87 in 10.0 mi NE 9.2 mph - N/A   Overcast
5:26 AM 39.0 °F 34.0 °F 35.1 °F 86% 29.88 in 10.0 mi NNE 6.9 mph - 0.00 in Rain Light Rain
5:53 AM 37.9 °F 34.4 °F 35.1 °F 89% 29.89 in 10.0 mi NNW 4.6 mph - 0.00 in   Overcast
6:53 AM 37.9 °F - 35.1 °F 89% 29.91 in 10.0 mi Calm Calm - 0.00 in Rain Light Rain
7:13 AM 37.9 °F 35.5 °F 35.1 °F 89% 29.93 in 9.0 mi West 3.5 mph - 0.00 in Rain Light Rain
7:31 AM 37.9 °F - 36.0 °F 93% 29.94 in 2.5 mi Calm Calm - 0.02 in Rain Light Rain
7:41 AM 37.9 °F 35.5 °F 36.0 °F 93% 29.95 in 4.0 mi NW 3.5 mph - 0.03 in Rain Light Rain
7:53 AM 37.9 °F 35.5 °F 36.0 °F 93% 29.94 in 5.0 mi NNW 3.5 mph - 0.04 in Rain Light Rain
8:16 AM 39.0 °F 35.7 °F 36.0 °F 89% 29.97 in 6.0 mi NNW 4.6 mph - 0.02 in Rain Light Rain
8:38 AM 39.0 °F 36.8 °F 36.0 °F 89% 29.97 in 5.0 mi NNW 3.5 mph - 0.04 in Rain Light Rain
8:53 AM 39.0 °F 34.8 °F 36.0 °F 89% 29.97 in 8.0 mi NNW 5.8 mph - 0.05 in Rain Light Rain
9:02 AM 37.9 °F 31.5 °F 35.1 °F 89% 29.98 in 9.0 mi NNE 9.2 mph - 0.01 in Rain Light Rain
9:53 AM 37.0 °F 28.1 °F - N/A% 29.97 in 10.0 mi NNE 15.0 mph - 0.02 in Rain Light Rain
10:53 AM 36.0 °F 28.0 °F 34.0 °F 93% 30.02 in 4.0 mi NNE 11.5 mph - 0.00 in Snow Light Snow
11:08 AM 35.1 °F 26.9 °F 33.1 °F 92% 30.02 in 1.8 mi NNE 11.5 mph - 0.01 in Snow Light Snow
11:17 AM 36.0 °F 29.0 °F 34.0 °F 93% 30.02 in 1.5 mi NNE 9.2 mph - 0.01 in Snow Light Snow
11:23 AM 36.0 °F 28.5 °F 34.0 °F 93% 30.02 in 3.0 mi NE 10.4 mph - 0.01 in Snow Light Snow
11:29 AM 35.1 °F 28.6 °F 33.1 °F 92% 30.02 in 1.8 mi NE 8.1 mph - 0.02 in Snow Light Snow
11:39 AM 35.1 °F 30.1 °F 34.0 °F 96% 30.02 in 2.0 mi NE 5.8 mph - 0.02 in Snow Light Snow
11:46 AM 37.0 °F 31.0 °F 35.1 °F 93% 30.02 in 5.0 mi NE 8.1 mph - 0.02 in Snow Light Snow
11:53 AM 37.0 °F 31.6 °F 35.1 °F 93% 30.04 in 9.0 mi ENE 6.9 mph - 0.03 in Rain Light Rain
12:17 PM 37.9 °F 30.9 °F 35.1 °F 89% 30.02 in 10.0 mi NE 10.4 mph - 0.00 in Rain Light Rain
12:45 PM 36.0 °F 28.5 °F 33.1 °F 89% 30.02 in 2.5 mi NNE 10.4 mph - 0.00 in Snow Light Snow
12:53 PM 36.0 °F 29.0 °F 33.1 °F 89% 30.04 in 4.0 mi NE 9.2 mph - 0.00 in Snow Light Snow
12:59 PM 36.0 °F 29.0 °F 33.1 °F 89% 30.02 in 2.5 mi NNE 9.2 mph - 0.00 in Snow Light Snow
1:14 PM 35.1 °F 28.6 °F 33.1 °F 92% 30.02 in 1.2 mi NNE 8.1 mph - 0.01 in Snow Light Snow
1:21 PM 35.1 °F 29.3 °F 33.1 °F 92% 30.02 in 1.2 mi NNE 6.9 mph - 0.01 in Snow Light Snow
1:35 PM 35.1 °F 30.1 °F 34.0 °F 96% 30.02 in 3.0 mi NNE 5.8 mph - 0.02 in Snow Light Snow
1:46 PM 36.0 °F 31.1 °F 34.0 °F 93% 30.03 in 4.0 mi North 5.8 mph - 0.02 in Snow Light Snow
1:53 PM 36.0 °F 31.1 °F 34.0 °F 93% 30.05 in 4.0 mi North 5.8 mph - 0.02 in Snow Light Snow
2:10 PM 36.0 °F 31.1 °F 34.0 °F 93% 30.03 in 6.0 mi North 5.8 mph - 0.01 in Snow Light Snow
2:28 PM 36.0 °F 30.3 °F 34.0 °F 93% 30.03 in 6.0 mi North 6.9 mph - 0.01 in Snow Light Snow
2:53 PM 37.0 °F 33.3 °F 35.1 °F 93% 30.07 in 9.0 mi North 4.6 mph - 0.02 in Rain Light Rain
3:35 PM 37.9 °F 35.5 °F 35.1 °F 89% 30.04 in 10.0 mi North 3.5 mph - 0.00 in   Overcast
3:48 PM 37.4 °F - 33.8 °F 87% 30.04 in 10.0 mi Calm Calm - 0.00 in   Overcast
3:53 PM 37.9 °F 35.5 °F 34.0 °F 86% 30.07 in 10.0 mi NNE 3.5 mph - 0.00 in   Overcast
4:20 PM 37.9 °F 35.5 °F 34.0 °F 86% 30.06 in 10.0 mi North 3.5 mph - N/A   Overcast
4:53 PM 37.9 °F 34.4 °F 34.0 °F 86% 30.10 in 10.0 mi NNE 4.6 mph - N/A   Overcast
5:53 PM 35.1 °F 29.3 °F 32.0 °F 89% 30.13 in 10.0 mi NNE 6.9 mph - N/A   Overcast
6:07 PM 35.1 °F 29.3 °F 32.0 °F 89% 30.09 in 10.0 mi NNE 6.9 mph - N/A   Overcast
6:37 PM 35.1 °F 32.2 °F 32.0 °F 89% 30.10 in 10.0 mi ENE 3.5 mph - N/A   Overcast
6:53 PM 35.1 °F 30.1 °F 33.1 °F 92% 30.15 in 10.0 mi ENE 5.8 mph - N/A   Overcast
7:53 PM 35.1 °F 31.0 °F 33.1 °F 92% 30.18 in 10.0 mi SSE 4.6 mph - N/A   Overcast
8:06 PM 34.0 °F 31.0 °F 33.1 °F 96% 30.14 in 10.0 mi SSE 3.5 mph - N/A   Overcast
8:25 PM 34.0 °F 29.8 °F 33.1 °F 96% 30.16 in 10.0 mi NE 4.6 mph - N/A   Overcast
8:53 PM 34.0 °F 31.0 °F 32.0 °F 92% 30.21 in 10.0 mi NNE 3.5 mph - N/A   Overcast
9:01 PM 34.0 °F - 32.0 °F 92% 30.16 in 10.0 mi Calm Calm - N/A   Overcast
9:53 PM 33.1 °F 30.0 °F 32.0 °F 96% 30.23 in 10.0 mi South 3.5 mph - N/A   Overcast
10:29 PM 33.1 °F - 32.0 °F 96% 30.18 in 9.0 mi Calm Calm - N/A   Overcast
10:48 PM 33.8 °F 30.8 °F 32.0 °F 93% 30.18 in 8.0 mi ENE 3.5 mph - N/A   Overcast
10:53 PM 33.1 °F 30.0 °F 32.0 °F 96% 30.24 in 7.0 mi ENE 3.5 mph - N/A   Overcast
11:53 PM 32.0 °F - 30.9 °F 96% 30.25 in 8.0 mi Calm Calm - N/A   Overcast